Location: Heisede
(52.2582°N, 9.8523°E)
Time: 17:50:58
(UTC+00:00)

Cosmos 1833 Rocket - Visible Passes

Search period start: 11 April 2026 00:00
Search period end: 21 April 2026 00:00
Orbit: 833 x 837 km, 71.0° (Epoch: 11 April)

Date Brightness Start Highest point End Pass type
(mag) Time Alt. Az. Time Alt. Az. Time Alt. Az.
11 Apr 3.5 00:43:12 37° ESE 00:43:38 37° ESE 00:48:46 10° NE visible
11 Apr 3.2 02:24:52 29° WSW 02:27:26 48° NW 02:32:54 10° NNE visible
12 Apr 3.6 00:26:24 35° ESE 00:26:32 35° ESE 00:31:35 10° NE visible
12 Apr 3.1 02:08:03 33° WSW 02:10:17 52° NW 02:15:47 10° NNE visible
12 Apr 4.6 03:51:52 10° WNW 03:55:33 17° NNW 03:59:15 10° NNE visible
13 Apr 3.8 00:09:34 32° ESE 00:09:34 32° ESE 00:14:24 10° NE visible
13 Apr 3.0 01:51:13 38° WSW 01:53:07 55° NW 01:58:40 10° NNE visible
13 Apr 4.6 03:34:31 10° WNW 03:38:20 18° NNW 03:42:09 10° NNE visible
13 Apr 3.9 23:52:43 30° E 23:52:43 30° E 23:57:12 10° NE visible
14 Apr 2.9 01:34:22 43° WSW 01:35:59 59° NW 01:41:33 10° NNE visible
14 Apr 4.6 03:17:11 10° WNW 03:21:07 19° NNW 03:25:03 10° NNE visible
14 Apr 4.0 23:35:50 27° E 23:35:50 27° E 23:39:59 10° NE visible
15 Apr 2.8 01:17:29 48° WSW 01:18:50 63° NW 01:24:26 10° NNE visible
15 Apr 4.5 02:59:51 10° WNW 03:03:53 20° NNW 03:07:57 10° NNE visible
15 Apr 4.1 23:18:55 25° E 23:18:55 25° E 23:22:47 10° NE visible
16 Apr 2.8 01:00:34 54° WSW 01:01:42 67° NW 01:07:19 10° NNE visible
16 Apr 4.5 02:42:32 10° W 02:46:40 21° NNW 02:50:50 10° NNE visible
16 Apr 4.2 23:01:58 23° E 23:01:58 23° E 23:05:32 10° NE visible
17 Apr 2.7 00:43:37 59° WSW 00:44:33 72° WNW 00:50:12 10° NNE visible
17 Apr 4.5 02:25:16 10° W 02:29:29 21° NNW 02:33:44 10° NNE visible
17 Apr 4.3 22:45:00 21° E 22:45:00 21° E 22:48:18 10° NE visible
18 Apr 2.6 00:26:39 65° WSW 00:27:25 77° WNW 00:33:04 10° NNE visible
18 Apr 4.4 02:08:17 11° W 02:12:15 22° NW 02:16:38 10° NNE visible
18 Apr 4.4 22:28:00 20° E 22:28:00 20° E 22:31:03 10° NE visible
19 Apr 2.5 00:09:39 70° SW 00:10:17 82° WNW 00:15:57 10° NNE visible
19 Apr 4.4 01:51:17 13° W 01:55:03 23° NW 01:59:32 10° NNE visible
19 Apr 5.1 03:39:13 10° NNW 03:41:12 12° N 03:43:11 10° NNE visible
19 Apr 4.4 22:10:58 18° E 22:10:58 18° E 22:13:47 10° ENE visible
19 Apr 2.5 23:52:36 74° SW 23:53:09 88° WNW 23:58:49 10° NNE visible
20 Apr 4.4 01:34:15 14° W 01:37:52 25° NW 01:42:26 10° NNE visible
20 Apr 5.1 03:21:51 10° NNW 03:23:57 12° N 03:26:02 10° NNE visible
20 Apr 4.5 21:53:54 17° E 21:53:54 17° E 21:56:29 10° ENE visible
20 Apr 2.5 23:35:32 75° SSW 23:36:02 87° ESE 23:41:41 10° NNE visible
